Regional Weather Roundup
Issued by NWS Wilmington, NC

Home | Current Version | Previous Version | Text Only | Print | Product List | Glossary On
Versions: 1 2 3 4 5 6 7 8 9 10 11 12 13 14 15 16 17 18 19 20 21 22 23 24 25 26 27
000
ASUS42 KILM 261713
RWRILM
RWRILM
REGIONAL HOURLY WEATHER ROUNDUP
NATIONAL WEATHER SERVICE WILMINGTON NC
100 PM EDT FRI AUG 26 2016

NOTE: "FAIR" INDICATES FEW OR NO CLOUDS BELOW 12,000 FEET WITH NO
SIGNIFICANT WEATHER AND/OR OBSTRUCTIONS TO VISIBILITY.

...............WFO WILMINGTON COUNTY WARNING AREA...............

......COASTAL NC AND SC COUNTIES......

CITY           SKY/WX    TMP DP  RH WIND       PRES   REMARKS
WILMINGTON     PTSUNNY   88  72  58 SE8       30.10F HX  94
N MYRTLE BEACH SUNNY     84  72  67 S8        30.10F
MYRTLE BEACH   NOT AVBL

......INLAND NC AND SC COUNTIES.......

CITY           SKY/WX    TMP DP  RH WIND       PRES   REMARKS
LUMBERTON      SUNNY     91  71  51 S6        30.09S HX  97
ELIZABETHTOWN  SUNNY     89  71  54 S5        30.10S HX  96
WHITEVILLE     SUNNY     88  71  57 CALM      30.10S HX  94
FLORENCE       PTSUNNY   92  70  48 S7        30.09F HX  97
DARLINGTON     SUNNY     92  72  51 SE7       30.09F HX  99
KINGSTREE      FAIR      90  68  48 SE5       30.09F HX  93
HARTSVILLE     CLOUDY    91  70  49 CALM      30.09F HX  97
BENNETTSVILLE  FAIR      95  70  43 S5        30.08F HX 101
CONWAY         FAIR      90  70  51 CALM      30.10S HAZE    HX  95
GEORGETOWN     PTSUNNY   86  72  62 SE7       30.12S HX  92
MARION         FAIR      88  70  55 S5        30.10S HX  92

....................REST OF NORTH CAROLINA......................

.........EASTERN NC.........

CITY           SKY/WX    TMP DP  RH WIND       PRES   REMARKS
CAPE HATTERAS  SUNNY     86  71  60 VRB5      30.11F HX  91
JACKSONVILLE   PTSUNNY   89  73  59 CALM      30.10F HX  97
MOREHEAD CITY  PTSUNNY   85  72  65 SW8       30.11S HX  91
KENANSVILLE    SUNNY     90  72  55 NW5       30.10S HX  96
NEW BERN       SUNNY     90  72  55 VRB3      30.11F HX  97
ELIZABETH CITY SUNNY     90  72  55 S7        30.08F HX  97

.........CENTRAL NC.........

CITY           SKY/WX    TMP DP  RH WIND       PRES   REMARKS
RALEIGH DURHAM MOSUNNY   93  71  48 CALM      30.09F HX 100
ROCKY MOUNT    SUNNY     92  75  57 N3        30.08F HX 103
ROANOKE RAPIDS NOT AVBL
FAYETTEVILLE   SUNNY     93  70  46 VRB3      30.08F HX  99
HOFFMAN        SUNNY     95  70  43 NE5       30.08F HX 101

.........WESTERN NC.........

CITY           SKY/WX    TMP DP  RH WIND       PRES   REMARKS
CHARLOTTE      PTSUNNY   94  68  42 NE9       30.12F HX  98
GREENSBORO     PTSUNNY   91  70  49 N7        30.13F HX  96
HICKORY        NOT AVBL
BOONE          NOT AVBL
ASHEVILLE      NOT AVBL

.....................REST OF SOUTH CAROLINA.....................

.........EASTERN SC.........

CITY           SKY/WX    TMP DP  RH WIND       PRES   REMARKS
CHARLESTON     MOSUNNY   90  69  50 E10       30.09F HX  94
BEAUFORT MCAS  MOSUNNY   90  71  53 E10       30.09F HX  96
HILTON HEAD    MOSUNNY   90  75  62 NE7       30.10  HX 100

.........CENTRAL SC.........

CITY           SKY/WX    TMP DP  RH WIND       PRES   REMARKS
COLUMBIA       MOSUNNY   95  69  42 E10       30.08F HX 100
ORANGEBURG     MOSUNNY   90  70  51 VRB5      30.10F HX  95
SUMTER SHAW    SUNNY     91  69  49 S6        30.07F HX  95

.........WESTERN SC.........

CITY           SKY/WX    TMP DP  RH WIND       PRES   REMARKS
GREENVILLE     NOT AVBL
ROCK HILL      MOSUNNY   94  69  44 SE8       30.11F HX  99
ANDERSON       MOSUNNY   91  70  49 E7        30.11F HX  96
CLEMSON        NOT AVBL
GREENWOOD      MOSUNNY   90  70  51 VRB3      30.12F HX  95


...................COASTAL AND OFFSHORE REPORTS..................

................LOCAL PIERS AND NC RESERVE................


STATION/POSITION TIME  SKY/WX   TEMP    WIND        PRES    VSBY
                                AIR SEA DIR/SP/G
                 (UTC)          (F)     (DEG/KT/KT) (MB)    (MI)
JOHNY MRCER PIER 1600            82 84  140/  8/  9 1018.8F
NC RESRV MASNBRO NOT AVBL
OCEAN CREST PIER NOT AVBL
SPRINGMAID  PIER 1600            84 84  110/  6/  8 1019.4F


................COASTAL AND OFFSHORE BUOYS................


STATION/POSITION TIME  SKY/WX   TEMP    WIND        PRES    VSBY
                                AIR SEA DIR/SP/G
                 (UTC)          (F)     (DEG/KT/KT) (MB)    (MI)
DIMNDSHOAL 41025 1650            82 85   CALM  /  2 1019.6F
WVE H/P(F/S)=  2/ 8 SWL H/P/D(F/S/D)=  2/ 70/ 8

CAPE LOOKOUT     1700            82     140/  4/  5 1019.3F
ONSLOW BAY 41036 NOT AVBL
ONSLOW BAY 41064 1608            82 84   60/  4/  4 1019.9S
ONSLOW BAY 41159 NOT AVBL
5SE WRITBC 41038 NOT AVBL
MASNBO INL 41110 NOT AVBL
WILM HARBR 41108 1626               86                N/A
WVE H/P(F/S)=  2/ 7

27SE WRITB 41037 1608            82 83   60/  2/  6 1020.0F
FRYING PAN 41013 1600            82 84   40/  8/ 10 1019.3F
SUNST NRSH 41024 1608            82 85  160/  6/  8 1019.3F
CAPRS NRSH 41029 1608            82 85   60/  6/  8 1019.6F
EDISTO     41004 1650            82 84   40/ 12/ 14 1018.8F
WVE H/P(F/S)=  2/ 8 SWL H/P/D(F/S/D)=  2/ 90/ 8



..........OFFSHORE BUOYS BEYOND 100 NM OFFSHORE...........
.....IN A TRIANGLE---HAT TO BERMUDA TO BAHAMAS TO HAT.....


STATION/POSITION TIME  SKY/WX   TEMP    WIND        PRES    VSBY
                                AIR SEA DIR/SP/G
                 (UTC)          (F)     (DEG/KT/KT) (MB)    (MI)
150E HAT   41001 NOT AVBL
W BERMUDA  41048 1650            83 84  330/  6/  8 1016.7F
WVE H/P(F/S)=  4/ 9 SWL H/P/D(F/S/D)=  3/140/ 9

ATLANTIC S 41049 1650            81 85  260/  4/  6 1017.0F
WVE H/P(F/S)=  4/ 8 SWL H/P/D(F/S/D)=  3/140/ 8

E BAHAMAS  41046 1600            84 85  290/  4/  8 1016.0F
NE BAHAMAS 41047 1600            84 87   80/  6/  8 1016.0F
120E CANVRL41010 NOT AVBL

END




USA.gov is the U.S. government's official web portal to all federal, state and local government web resources and services.